Lexington Weather

Lexington, Massachusetts, USA

44°F
3/22/2023 9:10am 
  • Lexington Conditions: Clear
  • Temperature: 43.7°F / 6.5°CWarmer 7.0°F than last hour.
  • Dew Point: 34.9°FIncreased 2.9°Fsince last hour.
  • Relative Humidity: 71%Decreased 12.0% since last hour.
  • Wind: Calm, 10-min avg: Calm, gust: 1 mph
  • Barometer: 30.38 in Steady
  • Visibility: 10 miles
  • Rain Today: 0.00 in
  •   

Regional Weather Roundup
for Boston, MA

        
000
ASUS41 KBOX 190010
RWRBOX

REGIONAL WEATHER ROUNDUP
NATIONAL WEATHER SERVICE BOSTON/NORTON MA
800 PM EDT SAT MAR 18 2023

NOTE:  "FAIR" INDICATES FEW OR NO CLOUDS BELOW 12,000 FEET WITH NO 
SIGNIFICANT WEATHER AND/OR OBSTRUCTIONS TO VISIBILITY.

MAZALL-190100-
EASTERN MASSACHUSETTS
  
CITY           SKY/WX    TMP DP  RH WIND       PRES   REMARKS
BOSTON         PTCLDY    47  21  35 W20G29    29.67R                  
6HR MIN TEMP:  47; 6HR MAX TEMP:  53;                                

BEVERLY        CLEAR     45  20  36 W8        29.65R                  
LAWRENCE       CLEAR     45  21  38 W14       29.68R                  
BEDFORD        CLEAR     44  20  38 W14G24    29.67R                  
NORWOOD        CLEAR     48  22  35 W13G21    29.67R                  
MARSHFIELD     CLEAR     39  32  75 VRB6      29.65R                  
PLYMOUTH       CLEAR     44  30  57 SW6       29.63R                  
TAUNTON          N/A    N/A N/A N/A MISG      29.66R                  
NEW BEDFORD    CLEAR     43  32  65 W7        29.65R                  
$$

MAZALL-190100-
CAPE COD AND THE ISLANDS
  
CITY           SKY/WX    TMP DP  RH WIND       PRES   REMARKS
FALMOUTH       NOT AVBL                                               
HYANNIS        CLEAR     40  32  73 W10       29.63R                  
CHATHAM        CLEAR     44  34  67 SW5       29.64F                  
PROVINCETOWN   CLEAR     39  34  82 S6        29.65R                  
NANTUCKET      CLEAR     40  34  79 W14       29.66R                  
MARTHAS VNYRD  CLEAR     44  29  55 W8        29.65S                  
$$
 
MAZALL-190100-
CENTRAL AND WESTERN MASSACHUSETTS
  
CITY           SKY/WX    TMP DP  RH WIND       PRES   REMARKS
WORCESTER      CLEAR     39  18  42 NW10      29.67R                  
6HR MIN TEMP:  39; 6HR MAX TEMP:  48;                                

FITCHBURG      CLEAR     41  16  36 W12G21    29.70R                  
ORANGE         CLEAR     34  18  52 S3        29.70R                  
SPRINGFIELD    NOT AVBL                                               
WESTFIELD      CLEAR     36  19  50 CALM      29.70R                  
NORTH ADAMS    NOT AVBL                                               
PITTSFIELD     MOCLDY    31  20  63 W5        29.66R WCI  26          
$$
 
RIZALL-190100-
RHODE ISLAND
  
CITY           SKY/WX    TMP DP  RH WIND       PRES   REMARKS
PROVIDENCE     PTCLDY    44  20  38 NW10      29.68R                  
6HR MIN TEMP:  44; 6HR MAX TEMP:  53;                                

NEWPORT        CLEAR     45  22  40 W13G20    29.66R                  
BLOCK ISLAND   CLEAR     41  32  70 W9        29.70R                  
SMITHFIELD     CLEAR     42  18  37 NW8G17    29.68R                  
WESTERLY       CLEAR     44  27  51 VRB3      29.69R                  
$$
 
CTZALL-190100-
CONNECTICUT
  
CITY           SKY/WX    TMP DP  RH WIND       PRES   REMARKS
BRADLEY INTL   PTCLDY    41  19  41 N5        29.70S                  
6HR MIN TEMP:  41; 6HR MAX TEMP:  50;                                

HARTFORD       PTCLDY    45  22  40 N5        29.71R                  
BRIDGEPORT     CLOUDY    47  19  33 NW5       29.70S                  
DANBURY        CLOUDY    43  20  39 SW3       29.71S                  
GROTON         MOCLDY    46  25  43 NW5       29.69S                  
NEW HAVEN      CLOUDY    49  23  36 N12       29.70S                  
CHESTER        FAIR      43  25  49 N5        29.69S                  
MERIDEN        MOCLDY    42  25  50 CALM      29.71R                  
WILLIMANTIC    PTCLDY    43  21  41 NW3       29.70R                  
OXFORD         PTCLDY    42  16  34 W3        29.70S                  
$$

MEZ002-015-021-024-NHZ003-005-008-011-012-014-VTZ005-008-190100-
NORTHERN NEW ENGLAND
  
CITY           SKY/WX    TMP DP  RH WIND       PRES   REMARKS
PORTLAND ME    CLEAR     42  20  41 W8        29.61R                  
6HR MIN TEMP:  40; 6HR MAX TEMP:  51;                                

BANGOR ME      CLOUDY    39  26  59 NW8       29.57R                  
CONCORD NH     PTCLDY    39  20  46 NW16G24   29.68R WCI  30          
MANCHESTER NH  MOCLDY    43  20  39 W10       29.67R                  
NASHUA NH      PTCLDY    42  20  41 W7        29.69R                  
PORTSMOUTH NH  NOT AVBL                                               
JAFFREY NH     CLEAR     37  17  44 CALM      29.67R                  
KEENE NH       CLEAR     34  21  59 CALM        N/A                   
BURLINGTON VT  FLURRIES  35  28  75 S3        29.70R                  
MT. WASHINGTON FOG       10  10 100 W30         N/A  VSB 1/16WCI -12  
$$

NYZ052-076-190100-
EASTERN NEW YORK
  
CITY           SKY/WX    TMP DP  RH WIND       PRES   REMARKS
ALBANY         FLURRIES  36  27  69 W13       29.73R WCI  27          
6HR MIN TEMP:  36; 6HR MAX TEMP:  44; 6HR PCP: TRACE;                

NEW YORK CITY  PTCLDY    49  14  24 W20G30    29.74R                  
6HR MIN TEMP:  49; 6HR MAX TEMP:  53;                                

$$
 
ANZALL-190100-
MARINE OBSERVATIONS
  
STATION/POSITION TIME  TEMP    WIND        PRES    VSBY  WAVE
                       AIR SEA DIR/SP/G                  HT/PER
                 (UTC) (F)     (DEG/KT/KT) (MB)    (MI)  (FT/S)
BOSTON BUOY      2350      41              1004.1R         2/14
BUZZARDS BAY     2300   43     250/ 23/ 25 1004.2R
NANTUCKET SOUND  2350   43 41  240/ 12/ 14 1003.8R         1/ 2
MASS BAY-STELLWA 2204   43 41  130/  6/  6 1000.8F  1 7/8  2/ 8
ISLE OF SHOALS   2300   47     290/ 15/ 16 1001.7R
S OF BLOCK IS    2356      42                N/A           5/ 9
$$

......................KEY.........................
  SKY/WX - SKY CONDITION/PRESENT WEATHER
  TMP    - TEMPERATURE IN FAHRENHEIT
  DWPT   - DEWPOINT IN FAHRENHEIT
  RH     - RELATIVE HUMIDITY IN PERCENT
  WIND   - DIRECTION AND SPEED IN MPH
  PRES   - MEAN SEA LEVEL PRESSURE IN INCHES OF HG
  WCI    - WIND CHILL INDEX
  VSB    - VISIBILITY IN MILES
  HX     - HEAT INDEX
  TC     - TEMPERATURE IN CELSIUS
  VRB    - VARIABLE WIND DIRECTION
  N/A    - NOT AVAILABLE
  
      

Other recent Regional Weather Roundups

Wed Mar 22, 8:10am EDT

Wed Mar 22, 7:10am EDT

Wed Mar 22, 6:10am EDT

Wed Mar 22, 5:10am EDT

Wed Mar 22, 4:10am EDT

Wed Mar 22, 3:10am EDT

Wed Mar 22, 2:10am EDT

Wed Mar 22, 1:10am EDT

Wed Mar 22, 12:10am EDT

Tue Mar 21, 11:10pm EDT

Tue Mar 21, 10:10pm EDT

Tue Mar 21, 9:10pm EDT

Tue Mar 21, 8:10pm EDT

Tue Mar 21, 7:10pm EDT

Tue Mar 21, 6:10pm EDT

Tue Mar 21, 5:10pm EDT

Tue Mar 21, 4:10pm EDT

Tue Mar 21, 3:10pm EDT

Tue Mar 21, 2:10pm EDT

Tue Mar 21, 1:10pm EDT

Tue Mar 21, 12:10pm EDT

Tue Mar 21, 11:10am EDT

Tue Mar 21, 10:10am EDT

Tue Mar 21, 9:10am EDT

Tue Mar 21, 8:10am EDT

Tue Mar 21, 7:10am EDT

Tue Mar 21, 6:10am EDT

Tue Mar 21, 5:10am EDT

Tue Mar 21, 4:10am EDT

Tue Mar 21, 3:10am EDT

Tue Mar 21, 2:10am EDT

Tue Mar 21, 1:10am EDT

Tue Mar 21, 12:10am EDT

Mon Mar 20, 11:10pm EDT

Mon Mar 20, 10:10pm EDT

Mon Mar 20, 9:10pm EDT

Mon Mar 20, 8:10pm EDT

Mon Mar 20, 7:10pm EDT

Mon Mar 20, 6:10pm EDT

Mon Mar 20, 5:10pm EDT

Mon Mar 20, 4:10pm EDT

Mon Mar 20, 3:10pm EDT

Mon Mar 20, 2:10pm EDT

Mon Mar 20, 1:10pm EDT

Mon Mar 20, 12:10pm EDT

Mon Mar 20, 11:10am EDT

Mon Mar 20, 10:10am EDT

Mon Mar 20, 9:10am EDT

Mon Mar 20, 8:10am EDT

Mon Mar 20, 7:10am EDT

Mon Mar 20, 6:10am EDT

Mon Mar 20, 5:10am EDT

Mon Mar 20, 4:10am EDT

Mon Mar 20, 3:10am EDT

Mon Mar 20, 2:10am EDT

Mon Mar 20, 1:10am EDT

Mon Mar 20, 12:10am EDT

Sun Mar 19, 11:10pm EDT

Sun Mar 19, 10:10pm EDT

Sun Mar 19, 9:10pm EDT

Sun Mar 19, 8:10pm EDT

Sun Mar 19, 7:10pm EDT

Sun Mar 19, 6:10pm EDT

Sun Mar 19, 5:10pm EDT

Sun Mar 19, 4:10pm EDT

Sun Mar 19, 3:10pm EDT

Sun Mar 19, 2:10pm EDT

Sun Mar 19, 1:10pm EDT

Sun Mar 19, 12:10pm EDT

Sun Mar 19, 11:10am EDT

Sun Mar 19, 10:10am EDT

Sun Mar 19, 9:10am EDT

Sun Mar 19, 8:10am EDT

Sun Mar 19, 7:10am EDT

Sun Mar 19, 6:10am EDT

Sun Mar 19, 5:10am EDT

Sun Mar 19, 4:10am EDT

Sun Mar 19, 3:10am EDT

Sun Mar 19, 2:10am EDT

Sun Mar 19, 1:10am EDT

Sun Mar 19, 12:10am EDT

Sat Mar 18, 11:10pm EDT

Sat Mar 18, 10:10pm EDT

Sat Mar 18, 9:10pm EDT

Sat Mar 18, 7:10pm EDT

Sat Mar 18, 6:10pm EDT

Sat Mar 18, 5:10pm EDT

Sat Mar 18, 4:10pm EDT

Sat Mar 18, 3:10pm EDT

Sat Mar 18, 2:10pm EDT

Sat Mar 18, 1:10pm EDT

Sat Mar 18, 12:10pm EDT

Sat Mar 18, 11:10am EDT

Sat Mar 18, 10:10am EDT

Sat Mar 18, 9:10am EDT

Sat Mar 18, 8:10am EDT

Sat Mar 18, 7:10am EDT

Sat Mar 18, 6:10am EDT

Sat Mar 18, 5:10am EDT

Sat Mar 18, 4:10am EDT

Sat Mar 18, 3:10am EDT

Sat Mar 18, 2:10am EDT

Sat Mar 18, 1:10am EDT

Sat Mar 18, 12:10am EDT

Fri Mar 17, 11:10pm EDT

Fri Mar 17, 10:10pm EDT

Fri Mar 17, 9:10pm EDT

Fri Mar 17, 8:10pm EDT

Fri Mar 17, 7:10pm EDT

Fri Mar 17, 6:10pm EDT

Fri Mar 17, 5:10pm EDT

Fri Mar 17, 4:10pm EDT

Fri Mar 17, 3:10pm EDT

Fri Mar 17, 2:10pm EDT

Fri Mar 17, 1:10pm EDT

Fri Mar 17, 12:10pm EDT

Fri Mar 17, 11:10am EDT

Fri Mar 17, 10:10am EDT

Fri Mar 17, 9:10am EDT

Fri Mar 17, 8:10am EDT

Fri Mar 17, 7:10am EDT

Fri Mar 17, 6:10am EDT

Fri Mar 17, 5:10am EDT

Fri Mar 17, 4:10am EDT

Fri Mar 17, 3:10am EDT

Fri Mar 17, 2:10am EDT

Fri Mar 17, 1:10am EDT

Fri Mar 17, 12:10am EDT

Thu Mar 16, 11:10pm EDT

Thu Mar 16, 10:10pm EDT

Thu Mar 16, 9:10pm EDT

Thu Mar 16, 8:10pm EDT

Thu Mar 16, 7:10pm EDT

Thu Mar 16, 6:10pm EDT

Thu Mar 16, 5:10pm EDT

Thu Mar 16, 4:10pm EDT

Thu Mar 16, 3:10pm EDT

Thu Mar 16, 2:10pm EDT

Thu Mar 16, 1:10pm EDT

Thu Mar 16, 12:10pm EDT

Thu Mar 16, 11:10am EDT

Thu Mar 16, 10:10am EDT

Thu Mar 16, 9:10am EDT

Thu Mar 16, 8:10am EDT

Thu Mar 16, 7:10am EDT

Thu Mar 16, 6:10am EDT

Thu Mar 16, 5:10am EDT

Thu Mar 16, 4:10am EDT

Thu Mar 16, 3:10am EDT

Thu Mar 16, 2:10am EDT

Thu Mar 16, 1:10am EDT

Thu Mar 16, 12:10am EDT

Wed Mar 15, 11:10pm EDT

Wed Mar 15, 10:10pm EDT

Wed Mar 15, 9:10pm EDT

Wed Mar 15, 8:10pm EDT

Wed Mar 15, 7:10pm EDT

Wed Mar 15, 6:10pm EDT

Wed Mar 15, 5:10pm EDT

Wed Mar 15, 4:10pm EDT

Wed Mar 15, 3:10pm EDT

Wed Mar 15, 2:10pm EDT

Wed Mar 15, 1:10pm EDT

Wed Mar 15, 12:10pm EDT

Wed Mar 15, 11:10am EDT

Wed Mar 15, 10:10am EDT

Wed Mar 15, 9:10am EDT